Location: Poughquag
(41.6090°N, 73.6820°W)
Time: 13:24:04
(UTC-04:00)

CUBEBUG 2 - Pass Details

Date: 31 May 2024
Orbit: 571 x 666 km, 97.8° (Epoch: 14 June)

Event Time Altitude Azimuth Distance (km) Brightness Sun altitude
Rises 02:24:25 0° 22° (NNE) 2,997 ? -22.9°
Reaches altitude 10° 02:26:49 10° 31° (NNE) 2,088 ? -22.7°
Maximum altitude 02:30:59 34° 97° (E) 1,096 ? -22.4°
Enters shadow 02:32:28 27° 134° (SE) 1,265 ? -22.3°
